Weather observations for the past three days for
Craig-Moffat Airport
Imperial (Metric)
Date Time (mdt) Wind (mph) Vis. (mi.) Weather Sky Cond. Temperature (ºF) Relative Humidity Wind Chill (°F) Heat Index (°F) Pressure Precipitation (in)
Air Dwpt 6 hour altimeter (in) sea level (mb) 1 hr 3 hr 6 hr
Max. Min.
17 16:53 S 24 G 33 10.00 Fair and Breezy CLR 82 32 16% 80 29.59 994.6
17 15:53 SW 21 G 39 10.00 Fair and Breezy CLR 84.9 30.9 14% 82 29.6 994.5
17 14:53 S 18 G 36 10.00 Fair CLR 86 30.9 14% 83 29.62 994.7
17 13:53 S 18 G 36 10.00 Fair CLR 84 30.9 15% 81 29.64 994.8
17 12:53 SW 17 G 36 10.00 Fair CLR 82.9 30 15% 80 29.67 995.8
17 11:53 SW 23 G 35 10.00 Fair and Breezy CLR 81 30 82 43 16% 79 29.7 997.2
17 10:53 S 22 G 35 10.00 Fair and Breezy CLR 80.1 30.9 17% 78 29.71 997.2
17 09:53 S 25 G 40 10.00 Fair and Breezy CLR 78.1 30 17% 77 29.72 998.0
17 08:53 N 3 10.00 Fair CLR 68 42.1 39% 29.75 999.0
17 07:53 SW 3 10.00 Fair CLR 57.9 39.9 51% 29.76 1000.2
17 06:53 SW 3 10.00 Fair CLR 50 39 66% 29.76 1000.5
17 05:53 S 3 10.00 Fair CLR 44.1 37 62.1 43 76% 29.77 1000.8
17 04:53 SE 5 10.00 Fair CLR 45 39.9 83% 43 29.76 1000.1
17 03:53 E 6 10.00 Fair CLR 48 39.9 74% 46 29.77 1000.4
17 02:53 NE 3 10.00 Fair CLR 52 37.9 59% 29.78 1000.2
17 01:53 W 5 10.00 Fair CLR 61 34 36% 29.79 1000.2
17 00:53 SW 12 10.00 Fair CLR 62.1 35.1 37% 29.79 1000.2
16 23:53 S 3 10.00 Fair CLR 61 36 86 60.1 39% 29.79 1000.5
16 22:53 SE 3 10.00 Fair CLR 66 34 30% 29.79 1000.4
16 21:53 Calm 10.00 Fair CLR 64 35.1 34% 29.78 1000.8
16 20:53 S 9 10.00 Fair CLR 71.1 30.9 23% 29.77 1000.3
16 19:53 SW 8 10.00 Fair CLR 75 30.9 20% 76 29.77 1000.7
16 18:53 SW 14 10.00 Fair CLR 81 26.1 13% 79 29.78 1001.1
16 17:53 SW 18 G 33 10.00 Fair CLR 86 25 90 78.1 11% 83 29.78 1001.3
16 16:53 W 23 G 39 10.00 Fair and Breezy CLR 88 24.1 10% 84 29.8 1001.4
16 15:53 SW 16 G 35 10.00 Fair CLR 88 27 11% 84 29.82 1001.8
16 14:53 W 14 10.00 Fair CLR 88 36 16% 84 29.84 1002.3
16 13:53 Vrbl 6 10.00 Fair CLR 82 34 18% 80 29.87 1003.8
16 12:53 NW 7 G 18 10.00 Fair CLR 81 34 18% 79 29.9 1004.8
16 11:53 N 3 10.00 Fair CLR 78.1 34 78.1 43 20% 77 29.93 1005.8
16 10:53 NW 3 10.00 Fair CLR 73.9 39 28% 29.94 1006.3
16 09:53 Calm 10.00 Fair CLR 69.1 41 36% 29.96 1007.4
16 08:53 Calm 10.00 Fair CLR 63 42.1 47% 29.98 1008.2
16 07:53 NE 3 10.00 Fair CLR 55.9 42.1 60% 29.98 1008.4
16 06:53 E 5 10.00 Fair CLR 48 41 77% 47 29.98 1008.6
16 05:53 Calm 10.00 Fair CLR 43 37.9 57.9 42.1 82% 29.96 1007.9
16 04:53 Vrbl 3 10.00 Fair CLR 46 37.9 73% 29.94 1007.0
16 03:53 Calm 10.00 Fair CLR 46.9 41 80% 29.93 1006.2
16 02:53 Calm 10.00 Fair CLR 50 41 71% 29.93 1005.9
16 01:53 Calm 10.00 Fair CLR 52 42.1 69% 29.93 1005.9
16 00:53 SE 3 10.00 Fair CLR 54 42.1 64% 29.94 1006.2
15 23:53 Calm 10.00 Fair CLR 57.9 43 81 57 58% 29.94 1006.1
15 22:53 Calm 10.00 A Few Clouds FEW120 61 44.1 54% 29.94 1006.0
15 21:53 Calm 10.00 Fair CLR 63 42.1 47% 29.92 1005.8
15 20:53 SW 6 10.00 A Few Clouds FEW120 69.1 39 33% 29.91 1005.4
15 19:53 S 6 10.00 Fair CLR 73 42.1 33% 29.91 1005.6
15 18:53 SW 12 10.00 Fair CLR 79 37.9 23% 78 29.91 1005.7
15 17:53 SW 21 G 31 10.00 Fair and Breezy CLR 82 39 89.1 80.1 22% 80 29.92 1006.5
15 16:53 SW 23 G 36 10.00 Fair and Breezy CLR 82.9 35.1 18% 80 29.94 1007.1
15 15:53 SW 30 G 44 10.00 Fair and Windy CLR 84.9 35.1 17% 82 29.96 1007.3
15 14:53 W 22 G 36 10.00 A Few Clouds and Breezy FEW110 86 37.9 18% 83 29.95 1006.6
15 13:53 S 17 G 23 10.00 Partly Cloudy SCT100 84 44.1 25% 82 29.96 1007.2
15 12:53 S 8 G 22 10.00 Fair CLR 84 45 25% 82 29.99 1008.3
15 11:53 Calm 10.00 Fair CLR 80.1 46.9 80.1 44.1 31% 79 30.03 1009.6
15 10:53 NE 10 10.00 Fair CLR 75.9 48 37% 78 30.05 1010.4
15 09:53 NE 12 10.00 Fair CLR 71.1 48 44% 30.06 1011.2
15 08:53 NE 9 10.00 Fair CLR 64.9 46 51% 30.09 1012.5
15 07:53 E 12 10.00 Fair CLR 59 44.1 58% 30.1 1012.6
15 06:53 E 3 10.00 Fair CLR 52 46 80% 30.1 1013.3
15 05:53 SE 5 10.00 Fair CLR 45 42.1 53.1 42.1 90% 43 30.12 1014.5
15 04:53 Calm 10.00 Fair CLR 44.1 42.1 93% 30.11 1014.1
15 03:53 SE 3 10.00 Fair CLR 46 44.1 93% 30.11 1014.1
15 02:53 SE 3 10.00 Fair CLR 46.9 44.1 90% 30.11 1013.6
15 01:53 Calm 10.00 Fair CLR 50 45 83% 30.12 1013.7
15 00:53 Calm 10.00 Fair CLR 48.9 45 86% 30.12 1014.3
14 23:53 Calm 10.00 Fair CLR 52 46.9 73 50 83% 30.14 1014.3
14 22:53 NE 5 10.00 Fair CLR 55 46.9 74% 30.14 1014.3
14 21:53 Calm 10.00 Fair CLR 57.9 46 65% 30.15 1014.8
14 20:53 SW 5 10.00 Fair CLR 60.1 48 65% 30.12 1013.9
14 19:53 W 5 10.00 Fair CLR 68 48.9 51% 30.11 1012.7
14 18:53 SW 6 10.00 Fair CLR 72 48 43% 30.08 1010.7
14 17:53 SW 16 G 25 10.00 Partly Cloudy SCT120 73 45 78.1 70 37% 30.11 1012.1
Date Time (mdt) Wind (mph) Vis. (mi.) Weather Sky Cond. Air Dwpt Max. Min. Relative Humidity Wind Chill (°F) Heat Index (°F) altimeter (in) sea level (mb) 1 hr 3 hr 6 hr
6 hour
Temperature (ºF) Pressure Precipitation (in)